[[{"header":{"parameterUnit":"m.s-1","parameterCategory":1,"la1":30.2991,"la2":30.254,"lo1":-89.0895,"lo2":-89.0444,"dy":0.0017,"dx":0.0017,"nx":28,"ny":28,"refTime":"2024-03-31T09:00:00:Z","depth":0,"parameterNumber":2,"parameterNumberName":"U-component_of_WINDS"},"data":[0,0,0,0,0,0,0,0,0,0,0,0,0,0,0,0,0,0,0,0,0,0,0,0,0,0,0,0,0,0,0,0,0,0,0,0,0,0,0,0,0,0,0,0,0,0,0,0,0,0,0,0,0,0,0,0,0,0,-1.8946,-1.8946,0,-1.8946,-1.8946,-1.8946,-1.8929,-1.8928,-1.8928,-1.8927,-1.8928,-1.8929,-1.8929,0,0,0,0,0,0,0,0,0,0,0,0,0,-1.8931,-1.8931,-1.8946,-1.8946,-1.8946,-1.8946,-1.8946,-1.8946,-1.8929,-1.8928,-1.8928,-1.8927,-1.8928,-1.8929,-1.8929,0,0,0,0,0,0,0,0,0,0,0,0,0,-1.8935,-1.8931,-1.8946,-1.8937,-1.8936,-1.8946,-1.8946,-1.8946,-1.8929,-1.8928,-1.8928,-1.8927,-1.8928,-1.8928,-1.8929,-1.8947,0,0,-1.8931,-1.8932,0,0,0,0,0,0,0,0,-1.8935,-1.8935,-1.8939,-1.8938,-1.8937,-1.8937,-1.8941,-1.8947,-1.8929,-1.8932,-1.8927,-1.8927,-1.8932,-1.8932,-1.8934,-1.8947,-1.8947,-1.8931,-1.8932,-1.8932,-1.8932,0,0,0,0,0,0,0,-1.8934,-1.8935,-1.8946,-1.8939,-1.8938,-1.8933,-1.8933,-1.8942,-1.8936,-1.8932,-1.893,-1.8931,-1.8931,-1.8933,-1.8933,-1.8947,-1.8931,-1.8932,-1.8932,-1.8933,-1.8976,-1.8976,0,0,0,0,0,0,-1.8935,-1.8935,-1.8946,-1.8946,-1.8934,-1.8934,-1.8934,-1.8938,-1.8935,-1.8934,-1.8931,-1.893,-1.8932,-1.8933,-1.8933,-1.8954,-1.8932,-1.8933,-1.8933,-1.8975,-1.8976,-1.8977,0,0,0,0,0,0,-1.8935,-1.8936,-1.8946,-1.894,-1.8941,-1.8935,-1.8939,-1.8938,-1.894,-1.8935,-1.8934,-1.8934,-1.8932,-1.8932,-1.8944,-1.8954,-1.8933,-1.8934,-1.8974,-1.8975,-1.8976,-1.8995,0,0,0,0,0,0,-1.8934,-1.8936,-1.8943,-1.8941,-1.8942,-1.8956,-1.894,-1.8938,-1.8941,-1.8939,-1.8938,-1.8937,-1.8931,-1.8943,-1.8944,-1.8954,-1.8934,-1.8973,-1.8974,-1.8976,-1.8994,-1.8997,-1.9,0,0,0,0,0,-1.8934,-1.8949,-1.8943,-1.8945,-1.895,-1.8957,-1.8958,-1.8951,-1.8942,-1.8948,-1.8946,-1.8937,-1.8953,-1.8944,-1.8946,-1.8956,-1.8972,-1.8974,-1.8976,-1.8992,-1.8996,-1.9,0,0,0,0,0,0,-1.8953,-1.8948,-1.8942,-1.8957,-1.8957,-1.8954,-1.8962,-1.8955,-1.8958,-1.8956,-1.8948,-1.8948,-1.896,-1.8959,-1.895,-1.8973,-1.8961,-1.8963,-1.8973,-1.8977,-1.898,-1.8979,-1.8935,0,0,0,0,0,-1.8959,-1.8965,-1.896,-1.8974,-1.8974,-1.8968,-1.8971,-1.8966,-1.8966,-1.8966,-1.8964,-1.8965,-1.897,-1.8973,-1.8978,-1.8994,-1.8993,-1.9002,-1.9005,-1.9007,-1.9009,-1.9016,-1.902,-1.8982,-1.8982,-1.8982,0,0,-1.8971,-1.8969,-1.8973,-1.8977,-1.8977,-1.8983,-1.8969,-1.8976,-1.8981,-1.8967,-1.8978,-1.8976,-1.8977,-1.899,-1.8996,-1.899,-1.9019,-1.9009,-1.9011,-1.9011,-1.9018,-1.9022,-1.9025,-1.8983,-1.8983,-1.8983,0,0,-1.8996,-1.8995,-1.9006,-1.9006,-1.9006,-1.9002,-1.9004,-1.9002,-1.9,-1.9011,-1.9001,-1.9006,-1.9015,-1.9016,-1.9017,-1.9042,-1.9034,-1.9044,-1.9059,-1.9067,-1.907,-1.9072,-1.908,-1.9084,-1.9046,-1.9046,-1.9046,0,-1.9011,-1.902,-1.9012,-1.902,-1.9022,-1.901,-1.902,-1.9021,-1.9023,-1.9024,-1.9017,-1.9028,-1.9027,-1.904,-1.9046,-1.9048,-1.9051,-1.9044,-1.907,-1.9072,-1.9075,-1.9082,-1.9086,-1.9047,-1.9047,-1.9047,-1.9047,0,-1.9038,-1.9044,-1.9053,-1.9054,-1.9057,-1.9066,-1.906,-1.9064,-1.9058,-1.9055,-1.9065,-1.9064,-1.9068,-1.9071,-1.9066,-1.9083,-1.9079,-1.9071,-1.9059,-1.908,-1.9087,-1.909,-1.9049,-1.9048,-1.9048,-1.9048,0,0,-1.9075,-1.9071,-1.9074,-1.9074,-1.9073,-1.9078,-1.9087,-1.909,-1.9094,-1.9095,-1.9102,-1.911,-1.9102,-1.9104,-1.9099,-1.9105,-1.9124,-1.9096,-1.9096,-1.9101,-1.9143,-1.9148,-1.9152,-1.9119,-1.912,-1.912,-1.9142,0,-1.9098,-1.9112,-1.9106,-1.9121,-1.9126,-1.9115,-1.9122,-1.9123,-1.912,-1.9124,-1.9121,-1.9127,-1.9117,-1.9117,-1.9124,-1.9121,-1.9132,-1.9119,-1.9125,-1.9125,-1.9124,-1.9156,-1.9161,-1.9182,-1.9145,-1.9146,-1.9146,0,-1.9128,-1.913,-1.9145,-1.9142,-1.9145,-1.9151,-1.9154,-1.9158,-1.9158,-1.9155,-1.9157,-1.915,-1.9158,-1.9147,-1.9157,-1.9149,-1.9151,-1.915,-1.915,-1.915,-1.9136,-1.9155,-1.9189,-1.9192,-1.9151,-1.915,-1.915,0,-1.9152,-1.9159,-1.9169,-1.9169,-1.9167,-1.9171,-1.9171,-1.917,-1.9172,-1.9174,-1.9176,-1.9179,-1.918,-1.9183,-1.9177,-1.9169,-1.9189,-1.9177,-1.9187,-1.9187,-1.9191,-1.919,-1.9224,-1.9193,-1.9193,-1.9193,-1.9193,0,-1.9179,-1.9188,-1.9179,-1.9185,-1.9196,-1.9188,-1.9199,-1.9197,-1.9196,-1.9201,-1.9192,-1.9197,-1.919,-1.9194,-1.919,-1.9199,-1.92,-1.9198,-1.9197,-1.9198,-1.9199,-1.9199,-1.9197,-1.9194,-1.9194,-1.9194,-1.9194,0,-1.9207,-1.9202,-1.9212,-1.9208,-1.9207,-1.9215,-1.9212,-1.9218,-1.9214,-1.9221,-1.9222,-1.9217,-1.9222,-1.9216,-1.9221,-1.9218,-1.923,-1.9227,-1.923,-1.9229,-1.9239,-1.9237,-1.9274,-1.9278,-1.9245,-1.9245,-1.9246,0,-1.9224,-1.9231,-1.9228,-1.9231,-1.9231,-1.9235,-1.9237,-1.923,-1.9233,-1.9233,-1.9238,-1.9242,-1.9245,-1.9253,-1.9249,-1.9253,-1.9249,-1.9262,-1.925,-1.9251,-1.9248,-1.9248,-1.9248,-1.9264,-1.9264,-1.9264,-1.9265,0,-1.9255,-1.9252,-1.9255,-1.9257,-1.926,-1.9261,-1.9262,-1.9265,-1.9257,-1.9261,-1.9265,-1.9267,-1.9271,-1.9275,-1.9277,-1.9277,-1.9269,-1.9269,-1.9271,-1.9272,-1.9274,-1.9272,-1.9236,-1.9268,-1.9267,-1.9267,-1.9267,-1.9267,-1.9278,-1.9283,-1.9282,-1.9286,-1.9285,-1.9286,-1.9291,-1.9288,-1.9291,-1.9294,-1.9289,-1.9295,-1.9294,-1.9296,-1.9296,-1.93,-1.9295,-1.9299,-1.93,-1.93,-1.9301,-1.9273,-1.9301,-1.9301,-1.9301,-1.9301,-1.9301,0,-1.9308,-1.9306,-1.9309,-1.931,-1.9313,-1.9306,-1.9306,-1.9309,-1.9314,-1.9314,-1.9316,-1.9321,-1.9325,-1.9322,-1.9325,-1.9329,-1.9325,-1.933,-1.9329,-1.9329,-1.9306,-1.9304,-1.9332,-1.9332,-1.9332,-1.9332,-1.9332,-1.9332,-1.9323,-1.9332,-1.9328,-1.9336,-1.9335,-1.934,-1.934,-1.9341,-1.9341,-1.9346,-1.9349,-1.9347,-1.9345,-1.9348,-1.9351,-1.935,-1.9351,-1.9356,-1.9354,-1.9333,-1.933,-1.9327,-1.9325,-1.9357,-1.9357,-1.9376,-1.9376,-1.9376]},{"header":{"parameterUnit":"m.s-1","parameterCategory":1,"la1":30.2991,"la2":30.254,"lo1":-89.0895,"lo2":-89.0444,"dy":0.0017,"dx":0.0017,"nx":28,"ny":28,"refTime":"2024-03-31T09:00:00:Z","depth":0,"parameterNumber":3,"parameterNumberName":"V-component_of_WINDS"},"data":[0,0,0,0,0,0,0,0,0,0,0,0,0,0,0,0,0,0,0,0,0,0,0,0,0,0,0,0,0,0,0,0,0,0,0,0,0,0,0,0,0,0,0,0,0,0,0,0,0,0,0,0,0,0,0,0,0,0,5.0018,5.0019,0,5.0115,5.0116,5.0117,5.007,5.0067,5.0065,5.0063,5.0158,5.0163,5.0168,0,0,0,0,0,0,0,0,0,0,0,0,0,4.9787,4.9791,5.0018,5.0019,5.002,5.0115,5.0116,5.0118,5.007,5.0067,5.0064,5.0061,5.0157,5.0163,5.0168,0,0,0,0,0,0,0,0,0,0,0,0,0,4.9886,4.9793,5.0018,5.0008,5.0008,5.0115,5.0116,5.0118,5.0071,5.0067,5.0063,5.006,5.0155,5.0162,5.0169,5.029,0,0,5.0192,5.0195,0,0,0,0,0,0,0,0,4.988,4.9894,5.0008,5.0009,5.0009,5.0077,5.007,5.0175,5.0072,5.0047,5.0062,5.0058,5.0134,5.0143,5.0169,5.0294,5.0298,5.0192,5.0197,5.02,5.0202,0,0,0,0,0,0,0,4.9873,4.989,5.0056,5.001,5.0011,4.9998,5.0008,5.009,5.011,5.0049,5.0046,5.0058,5.0133,5.0162,5.0171,5.03,5.0192,5.0199,5.0203,5.0206,5.0529,5.0533,0,0,0,0,0,0,4.9868,4.9884,5.0053,5.0059,4.9934,5.0005,5.0016,5.0059,5.0109,5.0113,5.0061,5.0056,5.0152,5.0163,5.0174,5.032,5.02,5.0207,5.0211,5.0524,5.0529,5.0534,0,0,0,0,0,0,4.9863,4.9883,5.0049,4.9971,4.9991,5.0013,5.0061,5.0063,5.0091,5.0119,5.0122,5.0087,5.0149,5.0164,5.0262,5.0322,5.021,5.0217,5.052,5.0526,5.0532,5.0611,0,0,0,0,0,0,4.9856,4.9882,4.9929,4.9973,4.9996,5.0136,5.0065,5.0067,5.0105,5.0098,5.0144,5.0148,5.0147,5.0251,5.0269,5.033,5.0222,5.0514,5.0522,5.053,5.0603,5.0619,5.0633,0,0,0,0,0,4.9848,4.9946,4.9931,4.9952,5.0055,5.014,5.0153,5.0152,5.011,5.0157,5.0174,5.0146,5.0312,5.0261,5.0281,5.0346,5.051,5.052,5.0529,5.0596,5.0616,5.0632,0,0,0,0,0,0,4.9907,4.9951,4.9936,5.0051,5.0092,5.0132,5.0191,5.0172,5.0226,5.0217,5.0212,5.0223,5.0325,5.0344,5.0287,5.0465,5.0405,5.0419,5.0449,5.0468,5.0482,5.0476,5.0228,0,0,0,0,0,4.9933,5.0,5.0035,5.0133,5.0154,5.0169,5.0206,5.0202,5.0244,5.0261,5.0285,5.0326,5.0388,5.0428,5.0486,5.0605,5.0614,5.0659,5.0674,5.0686,5.0698,5.0763,5.0784,5.0565,5.0565,5.0565,0,0,4.9988,5.0021,5.0063,5.0145,5.0177,5.0246,5.0184,5.0259,5.031,5.0272,5.0367,5.0386,5.0431,5.054,5.0589,5.056,5.0761,5.0698,5.0707,5.0713,5.0775,5.0796,5.0814,5.0571,5.057,5.0569,0,0,5.0124,5.0155,5.0241,5.0275,5.0324,5.0333,5.0354,5.0397,5.0409,5.0504,5.0477,5.0536,5.0642,5.0676,5.0707,5.0855,5.0832,5.0874,5.0953,5.1016,5.1034,5.1049,5.1103,5.1123,5.0886,5.0886,5.0886,0,5.0187,5.029,5.0287,5.0365,5.0402,5.0372,5.0459,5.049,5.0555,5.0581,5.0547,5.068,5.0708,5.0825,5.0862,5.0887,5.0911,5.087,5.1032,5.1047,5.1061,5.1113,5.1133,5.0891,5.0891,5.089,5.089,0,5.0365,5.0437,5.05,5.0566,5.0609,5.0691,5.07,5.0744,5.0735,5.0748,5.0845,5.0878,5.0942,5.0969,5.0961,5.1085,5.1066,5.1032,5.0971,5.1087,5.1136,5.1156,5.0898,5.0896,5.0895,5.0894,0,0,5.0542,5.0605,5.0629,5.0659,5.0711,5.0766,5.0845,5.091,5.0949,5.0994,5.1061,5.1151,5.112,5.1156,5.115,5.1206,5.1324,5.1165,5.1166,5.1195,5.1464,5.1491,5.1514,5.1307,5.1311,5.1314,5.1461,0,5.0683,5.0825,5.0825,5.0956,5.1022,5.0994,5.1064,5.1103,5.1116,5.1174,5.1187,5.1253,5.1206,5.1227,5.1281,5.1298,5.1378,5.1287,5.137,5.1373,5.1362,5.154,5.1568,5.1705,5.148,5.1483,5.1485,0,5.0867,5.0921,5.1059,5.1102,5.113,5.1193,5.1253,5.1308,5.1351,5.1357,5.1397,5.1383,5.1463,5.1399,5.1509,5.1448,5.1481,5.1494,5.15,5.1509,5.1438,5.1555,5.1749,5.177,5.1515,5.1513,5.1511,0,5.0985,5.1091,5.1188,5.1214,5.1266,5.1312,5.1335,5.1374,5.1414,5.1465,5.149,5.1549,5.1582,5.1627,5.163,5.1583,5.1742,5.1677,5.1749,5.1749,5.1786,5.1784,5.1989,5.1804,5.1804,5.1803,5.1803,0,5.1144,5.123,5.1242,5.1302,5.1397,5.1395,5.1489,5.1508,5.1543,5.1605,5.1583,5.1642,5.164,5.1699,5.1701,5.1793,5.1807,5.1814,5.1814,5.1818,5.1817,5.1841,5.1833,5.1809,5.1807,5.1806,5.1805,0,5.1293,5.1304,5.1408,5.145,5.1462,5.153,5.1565,5.1621,5.1632,5.1711,5.173,5.1747,5.1816,5.1822,5.1901,5.1902,5.2014,5.2002,5.2,5.1999,5.2071,5.2065,5.2301,5.2332,5.2125,5.2127,5.2128,0,5.1395,5.1461,5.151,5.1551,5.1578,5.1643,5.1684,5.1683,5.1726,5.178,5.183,5.1896,5.195,5.2061,5.2079,5.214,5.2131,5.2209,5.214,5.2141,5.2134,5.2131,5.2138,5.2223,5.2225,5.2227,5.2229,0,5.1576,5.1578,5.1638,5.17,5.175,5.1798,5.1843,5.1877,5.1882,5.1931,5.2002,5.2044,5.2125,5.2192,5.2251,5.2273,5.2253,5.225,5.227,5.2276,5.2273,5.2278,5.2039,5.2245,5.2244,5.2243,5.2242,5.2241,5.1705,5.1763,5.1807,5.1875,5.1909,5.1952,5.2008,5.2026,5.2086,5.2154,5.2148,5.2227,5.2268,5.2345,5.2372,5.2433,5.2407,5.2435,5.2443,5.2451,5.2459,5.2262,5.2443,5.2443,5.2442,5.2442,5.2442,0,5.1887,5.1914,5.1976,5.2041,5.2094,5.207,5.2119,5.2165,5.2235,5.2275,5.2329,5.241,5.2474,5.2498,5.2561,5.2605,5.2597,5.2622,5.2619,5.2625,5.2478,5.2456,5.2627,5.2627,5.2627,5.2627,5.2627,5.2627,5.1987,5.2085,5.2092,5.2206,5.2231,5.231,5.234,5.2379,5.2412,5.2504,5.2558,5.2574,5.2608,5.2673,5.273,5.2735,5.276,5.279,5.2791,5.2654,5.2635,5.2618,5.2596,5.2795,5.2795,5.2933,5.2934,5.2935]}]]